This is the latest recevied weather packets stored in our database for station/object VA7NIC-10. If no packets are shown the sender has not sent any weather packets the latest 10 day(s).
| Time | Temp. | Humidity | Pressure | Rain* | Wind** | Luminosity | Snow |
|---|---|---|---|---|---|---|---|
| 1778026921 | 20° C | 62% | 1012.1 hPa | 0 mm | - | - | - |
| 1778026021 | 20.56° C | 62% | 1012.2 hPa | 0 mm | - | - | - |
| 1778025122 | 20.56° C | 62% | 1012.3 hPa | 0 mm | - | - | - |
| 1778024222 | 20.56° C | 61% | 1012.3 hPa | 0 mm | - | - | - |
| 1778023322 | 21.11° C | 62% | 1012.3 hPa | 0 mm | - | - | - |
| 1778022422 | 21.11° C | 60% | 1012.4 hPa | 0 mm | - | - | - |
| 1778021522 | 21.11° C | 62% | 1012.6 hPa | 0 mm | - | - | - |
| 1778020622 | 21.11° C | 62% | 1012.7 hPa | 0 mm | - | - | - |
| 1778019722 | 21.11° C | 62% | 1012.7 hPa | 0 mm | - | - | - |
| 1778018821 | 21.11° C | 63% | 1012.8 hPa | 0 mm | - | - | - |
| 1778017921 | 20.56° C | 63% | 1012.9 hPa | 0 mm | - | - | - |
| 1778017021 | 20.56° C | 63% | 1013.1 hPa | 0 mm | - | - | - |
| 1778016121 | 20.56° C | 60% | 1013.1 hPa | 0 mm | - | - | - |
| 1778015221 | 21.11° C | 58% | 1013.3 hPa | 0 mm | - | - | - |
| 1778014321 | 21.11° C | 61% | 1013.3 hPa | 0 mm | - | - | - |
| 1778013421 | 21.11° C | 60% | 1013.5 hPa | 0 mm | - | - | - |
| 1778012521 | 19.44° C | 66% | 1013.5 hPa | 0 mm | - | - | - |
| 1778011622 | 18.89° C | 68% | 1013.6 hPa | 0 mm | - | - | - |
| 1778010722 | 18.89° C | 68% | 1013.7 hPa | 0 mm | - | - | - |
| 1778009822 | 18.89° C | 70% | 1013.8 hPa | 0 mm | - | - | - |
| 1778008922 | 18.33° C | 71% | 1013.8 hPa | 0 mm | - | - | - |
| 1778008022 | 17.78° C | 72% | 1013.9 hPa | 0 mm | - | - | - |
| 1778007122 | 17.78° C | 73% | 1014 hPa | 0 mm | - | - | - |
| 1778006222 | 16.67° C | 76% | 1014.1 hPa | 0 mm | - | - | - |
| 1778005322 | 16.11° C | 78% | 1014 hPa | 0 mm | - | - | - |
* Rain latest hour (hover to see other rain measurements)
** Current wind speed in m/s (hover to see current wind gust speed)